Location: Recife
(8.0585°S, 34.8848°W)
Time: 21:05:49
(UTC-03:00)

Vanguard 3 - Pass Details

Date: 18 April 2026
Orbit: 507 x 3205 km, 33.4° (Epoch: 12 May)

Event Time Altitude Azimuth Distance (km) Brightness Sun altitude
Rises 17:39:48 0° 244° (WSW) 6,703 12.8 -6.6°
Reaches altitude 10° 17:44:59 10° 248° (WSW) 5,353 12.3 -7.9°
Maximum altitude 17:58:45 49° 317° (NW) 2,202 9.7 -11.3°
Drops below altitude 10° 18:06:45 10° 30° (NNE) 3,183 10.0 -13.2°
Sets 18:09:05 0° 37° (NE) 3,867 10.4 -13.8°
